• En España
  • Lista de países
  • Para 7 días
  • Temperatura del agua
  • Mapa Satelital
  • El tiempo en el mapa
  • Informadores
  • user-avatar
    Iniciar sesión

    Tiempo cada hora Silves

    Hoy, 25 Junio, Lunes

    Tiempo Temperatura Precipitaciones Viento Presión Humedad
    00:00 +19°C° 0 mm 3 mps 756 mmHg 91%
    01:00 +19°C° 0 mm 3 mps 756 mmHg 92%
    02:00 +19°C° 0 mm 3 mps 756 mmHg 92%
    03:00 +19°C° 0 mm 3 mps 756 mmHg 91%
    04:00 +19°C° 0 mm 3 mps 756 mmHg 90%
    05:00 +19°C° 0 mm 3 mps 756 mmHg 89%
    06:00 +20°C° 0 mm 3 mps 756 mmHg 85%
    07:00 +21°C° 0 mm 2 mps 756 mmHg 80%
    08:00 +23°C° 0 mm 2 mps 757 mmHg 76%
    09:00 +25°C° 0 mm 3 mps 757 mmHg 67%
    10:00 +27°C° 0 mm 3 mps 757 mmHg 59%
    11:00 +29°C° 0 mm 3 mps 757 mmHg 50%
    12:00 +29°C° 0 mm 4 mps 757 mmHg 47%
    13:00 +30°C° 0 mm 4 mps 757 mmHg 44%
    14:00 +32°C° 0 mm 5 mps 757 mmHg 41%
    15:00 +29°C° 0 mm 5 mps 757 mmHg 46%
    16:00 +28°C° 0 mm 6 mps 757 mmHg 50%
    17:00 +26°C° 0 mm 6 mps 757 mmHg 54%
    18:00 +23°C° 0 mm 6 mps 757 mmHg 64%
    19:00 +21°C° 0 mm 5 mps 757 mmHg 73%
    20:00 +19°C° 0 mm 5 mps 758 mmHg 82%
    21:00 +19°C° 0 mm 5 mps 758 mmHg 85%
    22:00 +18°C° 0 mm 4 mps 758 mmHg 87%
    23:00 +18°C° 0 mm 4 mps 758 mmHg 89%

    Mañana, 26 Junio, Martes

    Tiempo Temperatura Precipitaciones Viento Presión Humedad
    00:00 +17°C° 0 mm 4 mps 758 mmHg 90%
    01:00 +17°C° 0 mm 4 mps 757 mmHg 91%
    02:00 +17°C° 0 mm 4 mps 757 mmHg 92%
    03:00 +17°C° 0 mm 3 mps 757 mmHg 92%
    04:00 +17°C° 0 mm 3 mps 757 mmHg 92%
    05:00 +17°C° 0 mm 3 mps 757 mmHg 93%
    06:00 +19°C° 0 mm 3 mps 758 mmHg 79%
    07:00 +21°C° 0 mm 3 mps 758 mmHg 65%
    08:00 +25°C° 0 mm 3 mps 758 mmHg 52%
    09:00 +27°C° 0 mm 3 mps 758 mmHg 46%
    10:00 +28°C° 0 mm 4 mps 758 mmHg 40%
    11:00 +30°C° 0 mm 4 mps 758 mmHg 34%
    12:00 +30°C° 0 mm 5 mps 758 mmHg 35%
    13:00 +30°C° 0 mm 6 mps 758 mmHg 37%
    14:00 +30°C° 0 mm 7 mps 757 mmHg 38%
    15:00 +29°C° 0 mm 7 mps 757 mmHg 43%
    16:00 +27°C° 0 mm 7 mps 757 mmHg 49%
    17:00 +26°C° 0 mm 7 mps 757 mmHg 55%
    18:00 +23°C° 0 mm 7 mps 758 mmHg 63%
    19:00 +21°C° 0 mm 6 mps 758 mmHg 72%
    20:00 +19°C° 0 mm 6 mps 758 mmHg 80%
    21:00 +19°C° 0 mm 5 mps 758 mmHg 83%
    22:00 +17°C° 0 mm 5 mps 758 mmHg 85%
    23:00 +17°C° 0 mm 5 mps 758 mmHg 87%

    Pasado mañana, 27 Junio, Miércoles

    Tiempo Temperatura Precipitaciones Viento Presión Humedad
    00:00 +17°C° 0 mm 5 mps 758 mmHg 89%
    01:00 +16°C° 0 mm 5 mps 758 mmHg 90%
    02:00 +17°C° 0 mm 4 mps 758 mmHg 91%
    03:00 +17°C° 0 mm 4 mps 758 mmHg 92%
    04:00 +17°C° 0 mm 4 mps 758 mmHg 93%
    05:00 +17°C° 0 mm 4 mps 758 mmHg 95%
    06:00 +19°C° 0 mm 4 mps 758 mmHg 82%
    07:00 +21°C° 0 mm 4 mps 758 mmHg 69%
    08:00 +25°C° 0 mm 4 mps 758 mmHg 56%
    09:00 +26°C° 0 mm 4 mps 758 mmHg 50%
    10:00 +28°C° 0 mm 4 mps 758 mmHg 44%
    11:00 +30°C° 0 mm 5 mps 758 mmHg 38%
    12:00 +30°C° 0 mm 5 mps 757 mmHg 38%
    13:00 +30°C° 0 mm 6 mps 757 mmHg 38%
    14:00 +32°C° 0 mm 6 mps 756 mmHg 39%
    15:00 +29°C° 0 mm 7 mps 756 mmHg 43%
    16:00 +28°C° 0 mm 7 mps 756 mmHg 48%
    17:00 +27°C° 0 mm 7 mps 756 mmHg 53%
    18:00 +24°C° 0 mm 7 mps 756 mmHg 60%
    19:00 +22°C° 0 mm 6 mps 756 mmHg 68%
    20:00 +20°C° 0 mm 6 mps 757 mmHg 75%
    21:00 +19°C° 0 mm 6 mps 756 mmHg 78%
    22:00 +19°C° 0 mm 6 mps 756 mmHg 81%
    23:00 +17°C° 0 mm 5 mps 756 mmHg 84%

    28 Junio, Jueves

    Tiempo Temperatura Precipitaciones Viento Presión Humedad
    00:00 +17°C° 0 mm 5 mps 756 mmHg 86%
    01:00 +17°C° 0 mm 5 mps 755 mmHg 88%
    02:00 +17°C° 0 mm 4 mps 755 mmHg 89%
    03:00 +17°C° 0 mm 4 mps 755 mmHg 91%
    04:00 +17°C° 0 mm 4 mps 755 mmHg 92%
    05:00 +17°C° 0 mm 4 mps 755 mmHg 93%
    06:00 +19°C° 0 mm 4 mps 755 mmHg 81%
    07:00 +21°C° 0 mm 4 mps 755 mmHg 70%
    08:00 +23°C° 0 mm 4 mps 755 mmHg 58%
    09:00 +26°C° 0 mm 4 mps 754 mmHg 51%
    10:00 +27°C° 0 mm 4 mps 754 mmHg 45%
    11:00 +29°C° 0 mm 5 mps 754 mmHg 39%
    12:00 +28°C° 0 mm 5 mps 754 mmHg 41%
    13:00 +28°C° 0 mm 6 mps 753 mmHg 44%
    14:00 +28°C° 0 mm 6 mps 753 mmHg 47%
    15:00 +27°C° 0 mm 6 mps 753 mmHg 48%
    16:00 +27°C° 0 mm 6 mps 753 mmHg 49%
    17:00 +26°C° 0 mm 6 mps 753 mmHg 50%
    18:00 +23°C° 0 mm 6 mps 753 mmHg 59%
    19:00 +21°C° 0 mm 6 mps 753 mmHg 68%
    20:00 +19°C° 0 mm 6 mps 753 mmHg 76%
    21:00 +19°C° 0 mm 5 mps 753 mmHg 79%
    22:00 +17°C° 0 mm 5 mps 753 mmHg 82%
    23:00 +18°C° 0 mm 4 mps 753 mmHg 85%

    29 Junio, Viernes

    Tiempo Temperatura Precipitaciones Viento Presión Humedad
    00:00 +17°C° 0 mm 4 mps 752 mmHg 87%
    01:00 +17°C° 0 mm 4 mps 752 mmHg 88%
    02:00 +16°C° 0 mm 3 mps 752 mmHg 89%
    03:00 +16°C° 0 mm 3 mps 752 mmHg 89%
    04:00 +16°C° 0 mm 3 mps 752 mmHg 89%
    05:00 +16°C° 0 mm 2 mps 752 mmHg 89%
    06:00 +19°C° 0 mm 2 mps 752 mmHg 77%
    07:00 +21°C° 0 mm 2 mps 752 mmHg 64%
    08:00 +25°C° 0 mm 2 mps 752 mmHg 52%
    09:00 +26°C° 0 mm 3 mps 752 mmHg 47%
    10:00 +27°C° 0 mm 3 mps 752 mmHg 43%
    11:00 +29°C° 0 mm 4 mps 752 mmHg 38%
    12:00 +29°C° 0 mm 4 mps 751 mmHg 38%
    13:00 +29°C° 0 mm 5 mps 751 mmHg 37%
    14:00 +30°C° 0 mm 5 mps 751 mmHg 37%
    15:00 +28°C° 0 mm 5 mps 751 mmHg 41%
    16:00 +27°C° 0 mm 6 mps 751 mmHg 46%
    17:00 +26°C° 0 mm 6 mps 751 mmHg 50%
    18:00 +23°C° 0 mm 6 mps 751 mmHg 60%
    19:00 +21°C° 0 mm 5 mps 751 mmHg 70%
    20:00 +19°C° 0 mm 5 mps 752 mmHg 80%
    21:00 +18°C° 0,1 mm 4 mps 752 mmHg 83%
    22:00 +18°C° 0,1 mm 3 mps 752 mmHg 86%
    23:00 +17°C° 0,1 mm 2 mps 752 mmHg 89%

    30 Junio, Sábado

    Tiempo Temperatura Precipitaciones Viento Presión Humedad
    00:00 +17°C° 0 mm 2 mps 752 mmHg 90%
    01:00 +18°C° 0 mm 1 mps 752 mmHg 91%
    02:00 +16°C° 0 mm 1 mps 752 mmHg 91%
    03:00 +16°C° 0 mm 1 mps 752 mmHg 90%
    04:00 +18°C° 0 mm 1 mps 753 mmHg 88%
    05:00 +16°C° 0 mm 0 mps 753 mmHg 86%
    06:00 +20°C° 0 mm 1 mps 753 mmHg 75%
    07:00 +22°C° 0 mm 1 mps 753 mmHg 64%
    08:00 +24°C° 0 mm 1 mps 754 mmHg 53%
    09:00 +25°C° 0 mm 2 mps 754 mmHg 49%
    10:00 +27°C° 0 mm 2 mps 754 mmHg 45%
    11:00 +28°C° 0 mm 3 mps 754 mmHg 40%
    12:00 +28°C° 0 mm 3 mps 754 mmHg 40%
    13:00 +29°C° 0 mm 3 mps 754 mmHg 39%
    14:00 +29°C° 0 mm 4 mps 754 mmHg 39%
    15:00 +28°C° 0 mm 4 mps 754 mmHg 42%
    16:00 +27°C° 0 mm 4 mps 754 mmHg 46%
    17:00 +27°C° 0 mm 4 mps 754 mmHg 49%
    18:00 +25°C° 0 mm 3 mps 754 mmHg 57%
    19:00 +22°C° 0 mm 3 mps 754 mmHg 65%
    20:00 +20°C° 0 mm 3 mps 755 mmHg 73%
    21:00 +19°C° 0 mm 2 mps 755 mmHg 76%
    22:00 +19°C° 0 mm 2 mps 755 mmHg 80%
    23:00 +18°C° 0 mm 2 mps 755 mmHg 83%
    Mostrar más